Regional Weather Roundup
Issued by NWS

Home | Current Version | Previous Version | Text Only | Print | Product List | Glossary Off
Versions: 1 2 3 4 5 6 7 8 9 10 11 12 13 14 15 16 17 18 19 20 21 22 23 24 25 26 27 28 29 30 31 32 33 34 35 36 37 38 39 40 41 42 43 44 45 46 47 48 49 50

000
ASUS44 KMEG 290800
RWRTN
TENNESSEE HOURLY STATE WEATHER ROUNDUP
NATIONAL WEATHER SERVICE MEMPHIS TN
300 AM CDT TUE JUL 29 2014

TNZ002-004-019-021-049-052-054-088>092-290900-
WEST TENNESSEE

CITY           SKY/WX    TMP DP  RH WIND       PRES   REMARKS
MEMPHIS INTL   MOCLDY    74  61  63 NE12      30.06S
NWS MEMPHIS      N/A     72 N/A N/A MISG        N/A
JACKSON        CLEAR     65  59  81 CALM      30.06S
DYERSBURG      CLEAR     66  54  63 N6        30.09R
UNION CITY     CLEAR     61  57  88 N3        30.07S
PARIS          CLEAR     57  55  94 CALM      30.08S
LEXINGTON      CLEAR     63  61  94 CALM      30.05S
SAVANNAH       CLEAR     64  63  94 N5        30.05S
$$

TNZ008-025-027-028-033-062-065-066-290900-
NORTH MIDDLE TENNESSEE

CITY           SKY/WX    TMP DP  RH WIND       PRES   REMARKS
NASHVILLE      CLEAR     65  56  72 N7        30.04F
CLARKSVILLE    CLEAR     59  54  83 N8        30.06S
COOKEVILLE     CLEAR     59  57  94 CALM      30.02S
CROSSVILLE     PTCLDY    62  57  83 NW6       30.04F
$$

TNZ061-075-076-078-094-096-097-290900-
SOUTH MIDDLE TENNESSEE

CITY           SKY/WX    TMP DP  RH WIND       PRES   REMARKS
FAYETTEVILLE   CLEAR     63  57  82 N22G46    30.03S
TULLAHOMA      CLEAR     61  57  88 N5        30.04S
WINCHESTER     PTCLDY    63  61  94 CALM      30.03F
MCMINNVILLE    CLEAR     63  61  94 CALM      30.02F
COLUMBIA       CLEAR     64  61  88 CALM      30.03F
SHELBYVILLE    CLEAR     63  61  94 N3        30.04S
$$

TNZ017-018-042-046-047-290900-
NORTHEAST TENNESSEE

CITY           SKY/WX    TMP DP  RH WIND       PRES   REMARKS
TRI CITIES     CLEAR     58  55  90 CALM      29.99F
ELIZABETHTON   MOSUNNY   55  55 100 CALM        N/A
$$

TNZ012-013-036-069-073-074-290900-
CENTRAL EAST TENNESSEE

CITY           SKY/WX    TMP DP  RH WIND       PRES   REMARKS
KNOXVILLE      PTCLDY    64  59  83 CALM      29.98F
OAK RIDGE      CLOUDY    64  61  90 CALM      30.00F
GATLINBURG     MOSUNNY   61  59  94 CALM      29.99S
$$

TNZ083-085-099-290900-
SOUTHEAST TENNESSEE

CITY           SKY/WX    TMP DP  RH WIND       PRES   REMARKS
CHATTANOOGA    CLEAR     67  59  75 W5        29.99F
$$

SKY/WX REPORTED AS FAIR MEANS FEW OR NO CLOUDS BELOW
12 THOUSAND FEET.




USA.gov is the U.S. government's official web portal to all federal, state and local government web resources and services.